FW7447 Weather Reports


Display with metric or nautical units.
time (UTC)temp
F
wind
direction
speed
MPH
gust
MPH
rain 1hr
in
rain 24hr
in
rain mn
in
humidity
%
barometer
mb
20260502200050 64 290 5.0 17.0 0.00 0.00 0.00 34 1011.5
20260502194544 64 28 3.0 6.0 0.00 0.00 0.00 40 1011.7
20260502193047 65 261 3.0 9.0 0.00 0.00 0.00 44 1011.9
20260502191553 64 280 1.0 8.0 0.00 0.00 0.00 46 1012.1
20260502190047 63 51 3.0 6.0 0.00 0.00 0.00 51 1012.4
20260502184547 62 40 3.0 7.0 0.00 0.00 0.00 53 1012.3
20260502183035 61 120 2.0 8.0 0.00 0.00 0.00 53 1012.4
20260502181545 61 147 2.0 10.0 0.00 0.00 0.00 55 1012.7
20260502163047 56 30 2.0 6.0 0.00 0.00 0.00 60 1013.9
20260502161546 56 56 2.0 6.0 0.00 0.00 0.00 62 1014.1
20260502151604 56 342 3.0 5.0 0.00 0.00 0.00 68 1014.1
20260502123045 53 312 1.0 4.0 0.00 0.00 0.00 75 1014.0
20260502121544 53 333 0.0 3.0 0.00 0.00 0.00 77 1013.6
20260502114541 53 348 1.0 3.0 0.00 0.00 0.00 76 1013.2
20260502113052 53 0 0.0 3.0 0.00 0.00 0.00 75 1013.0
20260502111535 53 343 1.0 3.0 0.00 0.00 0.00 76 1013.5
20260502110057 53 343 1.0 3.0 0.00 0.00 0.00 76 1013.1
20260502104546 53 0 1.0 4.0 0.00 0.00 0.00 77 1013.0
20260502103045 52 51 1.0 3.0 0.00 0.00 0.00 80 1013.1
20260502101546 52 51 0.0 1.0 0.00 0.00 0.00 84 1012.7
20260502090109 52 0 0.0 0.0 0.00 0.00 0.00 87 1013.2
20260502071535 54 0 0.0 0.0 0.00 0.00 0.00 86 1012.5
20260502064557 54 0 0.0 0.0 0.00 0.00 0.00 86 1012.5
20260502063049 54 0 0.0 5.0 0.00 0.00 0.00 85 1012.5
20260502061539 55 55 1.0 5.0 0.00 0.00 0.00 83 1012.7
20260502060041 55 0 0.0 0.0 0.00 0.00 0.00 83 1012.7
20260502054548 55 0 0.0 0.0 0.00 0.00 0.00 83 1012.9
20260502053045 55 213 1.0 4.0 0.00 0.00 0.00 83 1013.1
20260502051545 55 0 0.0 3.0 0.00 0.00 0.00 82 1013.0
20260502050044 55 178 2.0 4.0 0.00 0.00 0.00 82 1013.0
20260502044539 55 175 1.0 2.0 0.00 0.00 0.00 81 1012.8
20260502043037 55 175 0.0 2.0 0.00 0.00 0.00 80 1012.8
20260502041556 55 175 0.0 2.0 0.00 0.00 0.00 80 1012.9
20260502040047 55 0 0.0 0.0 0.00 0.00 0.00 79 1013.1
20260502034540 56 0 0.0 0.0 0.00 0.00 0.00 78 1013.0
20260502033040 56 0 0.0 0.0 0.00 0.00 0.00 78 1013.2
20260502031535 56 0 0.0 0.0 0.00 0.00 0.00 77 1013.3
20260502030047 56 0 0.0 0.0 0.00 0.00 0.00 77 1013.5
20260502024600 56 0 0.0 0.0 0.00 0.00 0.00 76 1013.6
20260502023102 56 0 0.0 0.0 0.00 0.00 0.00 75 1013.6
20260502021540 57 0 0.0 2.0 0.00 0.00 0.00 75 1013.5
20260502020039 57 175 0.0 3.0 0.00 0.00 0.00 73 1013.3
20260502014537 58 0 0.0 0.0 0.00 0.00 0.00 71 1013.1
20260502013045 58 0 0.0 2.0 0.00 0.00 0.00 70 1012.9
20260502011544 59 174 0.0 2.0 0.00 0.00 0.00 68 1013.1
20260502010039 59 174 1.0 4.0 0.00 0.00 0.00 68 1012.9
20260502004538 59 175 0.0 7.0 0.00 0.00 0.00 67 1012.5
20260502003035 60 165 0.0 6.0 0.00 0.00 0.00 66 1012.5
20260502001546 61 117 0.0 2.0 0.00 0.00 0.00 65 1012.3
20260501234540 63 0 0.0 2.0 0.00 0.00 0.00 62 1011.7
20260501233039 63 0 0.0 3.0 0.00 0.00 0.00 60 1011.7
20260501231545 64 209 1.0 6.0 0.00 0.00 0.00 57 1011.3
20260501230045 65 199 2.0 9.0 0.00 0.00 0.00 56 1011.7
20260501224603 65 211 3.0 10.0 0.00 0.00 0.00 56 1011.8
20260501223044 65 166 2.0 11.0 0.00 0.00 0.00 55 1011.8
20260501221543 66 0 5.0 12.0 0.00 0.00 0.00 54 1011.9
20260501220040 66 175 2.0 13.0 0.00 0.00 0.00 55 1011.8
20260501214546 66 140 3.0 9.0 0.00 0.00 0.00 53 1011.7
20260501213046 67 182 3.0 9.0 0.00 0.00 0.00 53 1012.0
20260501211543 67 164 2.0 9.0 0.00 0.00 0.00 52 1012.1
20260501210040 67 201 4.0 9.0 0.00 0.00 0.00 51 1012.2
20260501204535 67 194 3.0 11.0 0.00 0.00 0.00 52 1012.2
20260501203038 67 198 4.0 13.0 0.00 0.00 0.00 50 1012.3
20260501201547 67 161 5.0 13.0 0.00 0.00 0.00 50 1012.4